1st Responders/1st Detectors/Storm Spotters Weather Summary for Ballard County, KY

Forecast Maps


Reg. NEXRAD Animation


National Fire Danger: Day 1 & 2 Map

Current NWS Watch/Warnings

SPC Convective Day 1 Outlook


Day 2 Outlook

(Click images to enlarge|Page will refresh every 5 minutes)
UK Ag. Weather Center Desktop Severe Weather Service[HERE]
Ballard County, KY Hazardous Weather Outlook Webcast
(9 AM to 9 PM Mon-Fri)
[Fast]
[Dial-up]


UKAWC 1st Detectors/1st Responders Precision Weather Forecast For BALLARD County, Kentucky
(based on the NWS County Digital Forecast)

ISSUED AT 18:00 UTC ON TUESDAY NOV 21 2017
DAY TUESDAY
CDT 3HR 2P 3P 4P 5P 6P
MAX/MIN -- -- -- -- 56°
TEMP 54° 56° 56° 54° 50°
SKY COVER 56% 58% 59% 52% 44%
Clouds
DEW PT 36° 36° 38° 38° 38°
RH 50% 46% 50% 56% 60%
POP 12HR -- -- -- -- --
RAIN/SNOW (liq.equ) -- -- -- -- --
SNOWFALL -- -- -- -- --
WIND SPEED(MPH) 10 9 8 7 5
WIND Gust(MPH) 16 15 8 7 5
WIND DIR SW SW SW W W
DEW -- -- -- -- --
HeatIndex 54 56 56 54 50
WIND CHILL -- -- -- -- --
SPRAY COND
DRY COND
LIVESTOCK COLDSTRESS



DAY WEDNESDAY THURSDAY FRIDAY SATURDAY SUNDAY MONDAY
CDT 6HR 7P 8P 9P 10P 11P MIDN 1A 2A 3A 4A 5A 6A 7A 8A 9A 10A 11A NOON 1P 2P 3P 4P 5P 6P 7P 8P 9P 10P 11P MIDN 1A 4A 7A 10A 1P 4P 7P 1A 7A 1P 7P 1A 7A 1P 7P 1A 7A 1P 7P 1A 7A 1P 7P
MAX/MIN -- -- -- -- -- -- -- -- -- -- -- -- 29° -- -- -- -- -- -- -- -- -- -- 45° -- -- -- -- -- -- -- -- 25° -- -- 49° -- -- 31° 56° -- -- 40° 58° -- -- 32° 47° -- -- 29° 47° --
TEMP 49° 47° 45° 43° 40° 38° 36° 34° 32° 31° 31° 29° 29° 29° 31° 34° 36° 40° 41° 43° 45° 43° 41° 38° 34° 32° 31° 31° 31° 31° 29° 27° 27° 38° 47° 49° 40° 36° 31° 54° 50° 47° 41° 58° 49° 40° 32° 47° 38° 34° 29° 47° 38°
SKY COVER 37% 29% 22% 14% 11% 6% 3% 3% 2% 2% 5% 11% 7% 6% 4% 3% 3% 2% 2% 2% 2% 1% 2% 2% 2% 4% 9% 11% 18% 32% 40% 34% 27% 14% 11% 6% 3% 1% 1% 5% 23% 44% 31% 14% 11% 8% 9% 15% 8% 10% 16% 16% 16%
Clouds
DEW PT 36° 36° 34° 31° 29° 29° 27° 27° 25° 25° 23° 22° 22° 22° 22° 22° 22° 22° 22° 22° 22° 22° 22° 22° 22° 22° 22° 22° 22° 22° 22° 22° 22° 23° 25° 27° 29° 29° 29° 36° 38° 38° 38° 36° 34° 31° 27° 29° 27° 25° 23° 27° 29°
RH 62% 64% 65% 65% 66% 70% 72% 72% 75% 75% 74% 77% 74% 71% 66% 61% 53% 48% 44% 40% 41% 43% 46% 54% 61% 65% 68% 72% 71% 71% 75% 78% 84% 57% 43% 43% 64% 75% 88% 50% 60% 73% 88% 45% 57% 72% 81% 49% 63% 72% 78% 47% 69%
POP 12HR 1% -- -- -- -- -- -- -- -- -- -- -- 2% -- -- -- -- -- -- -- -- -- -- -- 0% -- -- -- -- -- -- -- 1% -- -- -- 0% -- 1% -- 1% -- 3% -- 2% -- 1% -- 1% -- 1% -- 2%
RAIN/SNOW (liq.equ) 0.00in -- -- -- -- -- 0.00in -- -- -- -- -- 0.00in -- -- -- -- -- 0.00in -- -- -- -- -- 0.00in -- -- -- -- -- 0.00in -- 0.00in -- 0.00in -- 0.00in -- -- -- -- -- -- -- -- -- -- -- -- -- -- -- --
SNOWFALL 0in -- -- -- -- -- 0in -- -- -- -- -- 0in -- -- -- -- -- 0in -- -- -- -- -- 0in -- -- -- -- -- 0in -- 0in -- 0in -- 0in -- -- -- -- -- -- -- -- -- -- -- -- -- -- -- --
WIND SPEED(MPH) 6 7 7 8 8 8 8 8 7 7 7 7 7 7 7 7 7 7 7 7 6 6 6 5 5 1 0 0 0 0 0 0 0 2 6 6 2 2 2 7 7 8 7 8 7 6 7 7 6 5 2 6 6
WIND DIR NW NW N N N N N N N N N N N N N N N N N N N N N N N N N N NE NE NE SE S SW SW SW SW SW S S S SW W NW NW NW NW NW N N E SW S
HeatIndex 49 47 40 37 34 31 29 27 25 24 23 22 22 23 24 27 30 35 37 40 41 40 38 34 31 32 31 31 31 31 29 27 27 35 47 49 38 33 28 54 50 47 37 58 49 35 26 47 33 29 26 47 34
WIND CHILL -- -- 41° 38° 35° 32° 30° 27° 26° 25° 25° 22° 22° 22° 25° 28° 30° 35° 36° 39° 42° 39° 37° 35° 30° -- -- -- -- -- -- -- -- -- -- -- -- -- -- -- -- -- 36° -- -- 36° 26° -- 34° 30° -- -- 34°
SPRAY COND
DRY COND
LIVESTOCK COLDSTRESS

Click on individual weather variable above in left-hand column (ie., TEMP, RH, QPF 12HR) to view state forecast maps






NWS 48 Hr. Forecast Maps,

Regional Hourly Observations For BALLARD County, Kentucky
Issued at 200 PM EST TUE NOV 21 2017
WESTERN AND SOUTH CENTRAL KENTUCKY
  
CITY           SKY/WX    TMP DP  RH WIND       PRES   REMARKS
PADUCAH        SUNNY     58  33  39 SW8       29.97F                  
HENDERSON      SUNNY     58  37  45 SW14      29.96F                  
OWENSBORO      SUNNY     57  35  43 SW16      29.96F                  
HOPKINSVILLE   MOSUNNY   57  31  37 SW8       30.00F                  
BOWLING GREEN  SUNNY     57  30  35 SW13      30.02S                  
GLASGOW        NOT AVBL                                               


Current NOWCAST not available:
Nowcasts are not issued routinely during fair weather. Only when
precipitation or other significant weather is occuring in this county will these
forecasts be issued. Currently, there is no short term forecast in effect.


Fire Weather Forecast For BALLARD County, KY
Provided by the National Weather Service:

Issued at: Tue Nov 21 13:05:01 EST 2017

Cloud Cover           PCldy        MClear       Clear        
Precip Type           NONE         NONE         NONE         
Chance Precip (%)     0            0            0            
High Temperature(F)   55-59                     42-46        
Minimum RH(%)         42-47                     35-40        
Low Temperature(F)                 26-30                     
Maximum RH(%)                      79-84                     
Temp (24h Trend)      58 (+3)      28 (-6)      45           
RH % (24h Trend)      45 (+11)     82 (+6)      38           
20FTWND-AM(MPH)       S 6-10 G17                N 6-10       
20FTWND-PM(MPH)       SW 6-10 G19  NW 5-9 G20   N 4-8        
Precip Amount         0.00         0.00         0.00         
Precip Duration                                              
Precip Begin                                                 
Precip End                                                   
1700'Mix Hgt Temp     53                        30           
Mixing Hgt(FT-AGL)    2177                      2993         
Transport Wind (KTS)  SW 12                     N  8         
Transport Wind (M/S)  SW  6                     N  4         
Vent Rate (M/S-M)     3984                      3648         
Dispersion Index      Fair                      Fair         
LAL                   1            1            1            
Haines Index          4            3            4            
Stability(DSI)        SLGT UNSTBL  SLGT UNSTBL  STBL         

Remarks...None.

.Forecast for days 3 through 7...

.WEDNESDAY NIGHT...Partly cloudy. Lows in the upper 20s. North
winds around 5 mph in the evening becoming light. 
.THANKSGIVING DAY...Sunny. Highs around 50. Southwest winds
around 5 mph. 
.THURSDAY NIGHT...Clear. Lows in the lower 30s. Southwest winds
around 5 mph. 
.FRIDAY...Sunny. Highs in the upper 50s. South winds 5 to 10 mph.
.FRIDAY NIGHT...Partly cloudy. Lows in the lower 40s. Southwest
winds 5 to 10 mph. 
.SATURDAY...Sunny. Highs in the upper 50s. Northwest winds 5 to
10 mph. 
.SATURDAY NIGHT...Mostly clear. Lows in the lower 30s. Northwest
winds 5 to 10 mph. 
.SUNDAY...Sunny, cooler. Highs in the upper 40s. North winds 5 to
10 mph. 
.SUNDAY NIGHT...Mostly clear. Lows in the upper 20s. North winds
5 to 10 mph. 
.MONDAY...Sunny. Highs in the upper 40s. Southeast winds around
5 mph shifting to the south in the afternoon. 

SPC's Fire Weather Web Tool (Excellent!), SPC's Fire Weather Outlooks, NWS Fire Weather WEB, Fire Danger Class Map,
Keetch-Byram Drought Index, ROMAN Web, Haines Index ,
WFAS's 10-hr Dead Fuel Moist., WFAS's 100-hr Dead Fuel Moist., Probablity of Ignition, Visual blackness Map, Palmer Drought Index, HPC's Rainfall Forecast Maps


Hazardous Weather Outlook For BALLARD County, Kentucky
420 AM CST Tue Nov 21 2017

 DAY ONE  Today and Tonight

No hazardous weather is expected at this time.

 DAYS TWO THROUGH SEVEN  Wednesday through Monday

No hazardous weather is expected at this time.

 SPOTTER INFORMATION STATEMENT  

Spotter activation will not be needed.

Latest BALLARD County, Kentucky Watches, Warnings and Advisories.
Additional Drought Info.: UKAWC Drought Page, Kentucky Drought Watch


7-Day Forecast For BALLARD County, KY

THIS AFTERNOON
Partly sunny. Highs in the upper 50s. West winds around 10 mph.

TONIGHT
Clear. Lows in the upper 20s. North winds around 10 mph.

WEDNESDAY
Sunny. Highs in the mid 40s. North winds around 5 mph.

WEDNESDAY NIGHT
Mostly clear. Lows in the upper 20s. Northeast winds 5 mph in the evening shifting to the south after midnight.

THANKSGIVING DAY
Sunny. Highs in the lower 50s. Southwest winds 5 mph.

THURSDAY NIGHT
Clear. Lows in the lower 30s.

FRIDAY
Sunny. Highs in the upper 50s.

FRIDAY NIGHT
Mostly clear. Lows in the lower 40s.

SATURDAY
Sunny. Highs in the upper 50s.

SATURDAY NIGHT
Mostly clear. Lows in the lower 30s.

SUNDAY
Sunny. Highs in the upper 40s.

SUNDAY NIGHT
Mostly clear. Lows in the lower 30s.

MONDAY
Sunny. Highs in the lower 50s.

Ag Weather Center, Department of Biosystems & Agricultural Engineering, University of Kentucky